DLH241 EDDH-LKPR

Flight info

Callsign DLH241
Flight time 0h 47m
Altitude 35000
Route RAMAR6G/33 RAMAR Z998 NUSGU/N0433F330 Z998 OSKAN M748 HDO DCT GOLOP GOLOP4S
Aircraft A320/M-V/N

Departure

Time 2026-04-23 11:44
Airport Hamburg Helmut Schmidt Airport (EDDH)

Arrival

Time 2026-04-23 12:32
Airport Václav Havel Airport Prague (LKPR)
Time Latitude Longitude Altitude Speed Heading
2026-04-23 11:44 53.74234 10.04725 5221 ft 260 kts 54°
2026-04-23 11:44 53.75141 10.07400 6226 ft 266 kts 61°
2026-04-23 11:45 53.75493 10.10480 7407 ft 275 kts 89°
2026-04-23 11:45 53.75186 10.13738 8347 ft 287 kts 98°
2026-04-23 11:45 53.74730 10.17073 9226 ft 295 kts 99°
2026-04-23 11:45 53.74196 10.20493 10177 ft 299 kts 107°
2026-04-23 11:46 53.73240 10.23600 11022 ft 309 kts 118°
2026-04-23 11:46 53.72059 10.26754 11549 ft 327 kts 121°
2026-04-23 11:46 53.70760 10.30033 12041 ft 344 kts 122°
2026-04-23 11:46 53.69373 10.33459 12504 ft 362 kts 122°
2026-04-23 11:47 53.67920 10.37044 12925 ft 379 kts 122°
2026-04-23 11:47 53.66404 10.40806 13295 ft 396 kts 122°
2026-04-23 11:47 53.64830 10.44730 13644 ft 411 kts 121°
2026-04-23 11:47 53.63216 10.48765 14243 ft 417 kts 121°
2026-04-23 11:48 53.61591 10.52831 14934 ft 420 kts 121°
2026-04-23 11:48 53.59958 10.56921 15614 ft 422 kts 121°
2026-04-23 11:48 53.58317 10.61027 16266 ft 425 kts 121°
2026-04-23 11:48 53.56661 10.65162 16892 ft 427 kts 121°
2026-04-23 11:49 53.54993 10.69317 17496 ft 430 kts 121°
2026-04-23 11:49 53.53313 10.73493 18087 ft 432 kts 121°
2026-04-23 11:49 53.51622 10.77691 18662 ft 435 kts 121°
2026-04-23 11:49 53.49919 10.81912 19214 ft 438 kts 121°
2026-04-23 11:50 53.48207 10.86157 19748 ft 440 kts 121°
2026-04-23 11:50 53.46486 10.90419 20267 ft 443 kts 121°
2026-04-23 11:50 53.44750 10.94706 20763 ft 445 kts 121°
2026-04-23 11:50 53.43004 10.99006 21232 ft 448 kts 121°
2026-04-23 11:51 53.41243 11.03332 21687 ft 450 kts 121°
2026-04-23 11:51 53.39497 11.07608 22113 ft 452 kts 121°
2026-04-23 11:51 53.37717 11.11964 22528 ft 454 kts 121°
2026-04-23 11:51 53.35930 11.16340 22924 ft 456 kts 121°
2026-04-23 11:52 53.34135 11.20729 23302 ft 458 kts 121°
2026-04-23 11:52 53.32324 11.25141 23658 ft 460 kts 121°
2026-04-23 11:52 53.30505 11.29556 23997 ft 462 kts 121°
2026-04-23 11:52 53.28673 11.33994 24316 ft 464 kts 121°
2026-04-23 11:53 53.26725 11.38313 24663 ft 468 kts 127°
2026-04-23 11:53 53.24463 11.42253 24989 ft 472 kts 133°
2026-04-23 11:53 53.22038 11.45989 25214 ft 476 kts 134°
2026-04-23 11:53 53.19595 11.49736 25443 ft 478 kts 134°
2026-04-23 11:54 53.17143 11.53486 25671 ft 479 kts 134°
2026-04-23 11:54 53.15517 11.55970 25809 ft 480 kts 134°
2026-04-23 11:54 53.13052 11.59739 25989 ft 481 kts 133°
2026-04-23 11:54 53.10579 11.63523 26150 ft 483 kts 133°
2026-04-23 11:55 53.08103 11.67311 26304 ft 484 kts 133°
2026-04-23 11:55 53.05619 11.71100 26449 ft 485 kts 134°
2026-04-23 11:55 53.03132 11.74881 26582 ft 486 kts 134°
2026-04-23 11:55 53.00636 11.78667 26708 ft 486 kts 133°
2026-04-23 11:56 52.98310 11.82712 26838 ft 482 kts 125°
2026-04-23 11:56 52.96268 11.87092 26962 ft 480 kts 123°
2026-04-23 11:56 52.94253 11.91508 27087 ft 480 kts 123°
2026-04-23 11:56 52.92238 11.95925 27212 ft 480 kts 123°
2026-04-23 11:57 52.90217 12.00341 27337 ft 480 kts 123°
2026-04-23 11:57 52.88194 12.04749 27463 ft 481 kts 122°
2026-04-23 11:57 52.86191 12.09097 27586 ft 482 kts 122°
2026-04-23 11:57 52.84152 12.13517 27723 ft 482 kts 122°
2026-04-23 11:58 52.82123 12.17917 27879 ft 482 kts 122°
2026-04-23 11:58 52.80091 12.22326 28059 ft 481 kts 122°
2026-04-23 11:58 52.78070 12.26715 28257 ft 480 kts 122°
2026-04-23 11:58 52.76046 12.31091 28455 ft 479 kts 122°
2026-04-23 11:59 52.74020 12.35454 28642 ft 478 kts 122°
2026-04-23 11:59 52.71913 12.39715 28894 ft 480 kts 128°
2026-04-23 11:59 52.69485 12.43509 29245 ft 482 kts 135°
2026-04-23 11:59 52.66743 12.46725 29566 ft 486 kts 143°
2026-04-23 12:00 52.63841 12.49603 29746 ft 488 kts 144°
2026-04-23 12:00 52.60925 12.52478 29871 ft 489 kts 144°
2026-04-23 12:00 52.57997 12.55353 30010 ft 490 kts 144°
2026-04-23 12:00 52.55073 12.58224 30182 ft 490 kts 144°
2026-04-23 12:01 52.52143 12.61098 30389 ft 490 kts 144°
2026-04-23 12:01 52.49218 12.63958 30612 ft 489 kts 144°
2026-04-23 12:01 52.46335 12.66772 30838 ft 488 kts 144°
2026-04-23 12:01 52.43385 12.69657 31062 ft 487 kts 143°
2026-04-23 12:02 52.40516 12.72463 31285 ft 486 kts 143°
2026-04-23 12:02 52.37617 12.75295 31516 ft 485 kts 143°
2026-04-23 12:02 52.34719 12.78124 31744 ft 484 kts 143°
2026-04-23 12:02 52.31826 12.80943 31978 ft 483 kts 143°
2026-04-23 12:03 52.28939 12.83742 32229 ft 482 kts 143°
2026-04-23 12:03 52.26066 12.86514 32714 ft 476 kts 143°
2026-04-23 12:03 52.23234 12.89247 33212 ft 471 kts 143°
2026-04-23 12:03 52.20421 12.91978 33623 ft 468 kts 143°
2026-04-23 12:04 52.17630 12.94691 34000 ft 466 kts 143°
2026-04-23 12:04 52.14848 12.97395 34362 ft 465 kts 143°
2026-04-23 12:04 52.12074 13.00091 34691 ft 464 kts 143°
2026-04-23 12:04 52.09299 13.02788 34995 ft 464 kts 143°
2026-04-23 12:05 52.06556 13.05448 35211 ft 466 kts 143°
2026-04-23 12:05 52.00986 13.10807 35279 ft 465 kts 143°
2026-04-23 12:06 51.95424 13.16141 35275 ft 464 kts 143°
2026-04-23 12:06 51.87078 13.24131 35273 ft 465 kts 143°
2026-04-23 12:07 51.81504 13.29445 35273 ft 465 kts 143°
2026-04-23 12:07 51.75915 13.34747 35268 ft 466 kts 143°
2026-04-23 12:08 51.70353 13.40003 35270 ft 466 kts 143°
2026-04-23 12:08 51.64751 13.45294 35267 ft 467 kts 143°
2026-04-23 12:09 51.59137 13.50579 35268 ft 467 kts 143°
2026-04-23 12:09 51.53528 13.55834 35277 ft 466 kts 143°
2026-04-23 12:10 51.47922 13.61084 35274 ft 466 kts 142°
2026-04-23 12:10 51.42789 13.67281 35297 ft 461 kts 137°
2026-04-23 12:11 51.37449 13.72938 35222 ft 463 kts 142°
2026-04-23 12:11 51.31868 13.78221 35222 ft 467 kts 143°
2026-04-23 12:12 51.26303 13.83549 35245 ft 466 kts 142°
2026-04-23 12:12 51.20799 13.88996 35252 ft 465 kts 141°
2026-04-23 12:13 51.15311 13.94457 35252 ft 465 kts 141°
2026-04-23 12:13 51.09807 13.99895 35243 ft 466 kts 141°
2026-04-23 12:14 51.04301 14.05299 34989 ft 469 kts 141°
2026-04-23 12:14 51.01519 14.08014 34732 ft 468 kts 141°
2026-04-23 12:14 50.98739 14.10725 33844 ft 471 kts 141°
2026-04-23 12:15 50.95940 14.13456 32848 ft 471 kts 141°
2026-04-23 12:15 50.93144 14.16179 31836 ft 472 kts 141°
2026-04-23 12:15 50.90345 14.18903 30771 ft 473 kts 141°
2026-04-23 12:15 50.87541 14.21629 29652 ft 474 kts 142°
2026-04-23 12:16 50.84732 14.24363 28475 ft 475 kts 142°
2026-04-23 12:16 50.81912 14.27103 27242 ft 479 kts 142°
2026-04-23 12:16 50.79054 14.29878 25961 ft 483 kts 143°
2026-04-23 12:16 50.76197 14.32644 24976 ft 479 kts 143°
2026-04-23 12:17 50.73366 14.35367 24224 ft 476 kts 143°
2026-04-23 12:17 50.70534 14.38078 23477 ft 473 kts 144°
2026-04-23 12:17 50.67730 14.40744 22682 ft 469 kts 144°
2026-04-23 12:17 50.64867 14.43083 21587 ft 473 kts 155°
2026-04-23 12:18 50.61646 14.44348 20739 ft 471 kts 171°
2026-04-23 12:18 50.58392 14.44482 19889 ft 466 kts 182°
2026-04-23 12:18 50.55257 14.43774 19068 ft 459 kts 192°
2026-04-23 12:18 50.52218 14.42346 18189 ft 453 kts 202°
2026-04-23 12:19 50.49422 14.40151 17293 ft 446 kts 214°
2026-04-23 12:19 50.46806 14.37552 16219 ft 446 kts 209°
2026-04-23 12:19 50.43918 14.35847 15405 ft 441 kts 194°
2026-04-23 12:19 50.40910 14.35191 14687 ft 432 kts 182°
2026-04-23 12:20 50.37908 14.35222 13655 ft 431 kts 178°
2026-04-23 12:20 50.34923 14.35606 12625 ft 430 kts 173°
2026-04-23 12:20 50.31963 14.36138 11768 ft 425 kts 173°
2026-04-23 12:20 50.29047 14.36638 10996 ft 417 kts 174°
2026-04-23 12:21 50.26189 14.37125 10254 ft 410 kts 174°
2026-04-23 12:21 50.23371 14.37621 9442 ft 404 kts 174°
2026-04-23 12:21 50.20597 14.38177 8582 ft 400 kts 173°
2026-04-23 12:21 50.17854 14.38754 7773 ft 395 kts 173°
2026-04-23 12:22 50.15212 14.39750 7054 ft 389 kts 156°
2026-04-23 12:22 50.12997 14.42052 6381 ft 380 kts 137°
2026-04-23 12:22 50.11293 14.45146 5693 ft 373 kts 122°
2026-04-23 12:22 50.09888 14.48434 5380 ft 357 kts 124°
2026-04-23 12:23 50.08422 14.51469 5011 ft 345 kts 127°
2026-04-23 12:23 50.06944 14.54354 4615 ft 336 kts 128°
2026-04-23 12:23 50.05498 14.57162 4238 ft 328 kts 128°
2026-04-23 12:23 50.04097 14.59915 3906 ft 320 kts 127°
2026-04-23 12:24 50.02774 14.62547 3999 ft 298 kts 127°
2026-04-23 12:24 50.01474 14.64935 4004 ft 282 kts 139°
2026-04-23 12:24 49.99799 14.66365 4028 ft 280 kts 166°
2026-04-23 12:24 49.97880 14.66530 4025 ft 276 kts 195°
2026-04-23 12:25 49.96167 14.65346 4051 ft 268 kts 217°
2026-04-23 12:25 49.94705 14.63673 4021 ft 251 kts 234°
2026-04-23 12:25 49.94014 14.61379 4005 ft 227 kts 267°
2026-04-23 12:25 49.94187 14.59074 3969 ft 209 kts 294°
2026-04-23 12:26 49.94919 14.57237 3970 ft 193 kts 308°
2026-04-23 12:26 49.95706 14.55632 3975 ft 181 kts 308°
2026-04-23 12:26 49.96457 14.54092 3978 ft 178 kts 308°
2026-04-23 12:26 49.97213 14.52554 4001 ft 180 kts 308°
2026-04-23 12:27 49.97963 14.51006 3979 ft 179 kts 308°
2026-04-23 12:27 49.98716 14.49471 3964 ft 178 kts 308°
2026-04-23 12:27 49.99468 14.47932 3979 ft 179 kts 308°
2026-04-23 12:27 50.00214 14.46386 3976 ft 180 kts 308°
2026-04-23 12:28 50.00975 14.44821 3769 ft 182 kts 308°
2026-04-23 12:28 50.01714 14.43313 3647 ft 174 kts 308°
2026-04-23 12:28 50.02446 14.41801 3336 ft 176 kts 308°
2026-04-23 12:28 50.03160 14.40312 3117 ft 166 kts 308°
2026-04-23 12:29 50.03837 14.38916 2874 ft 156 kts 309°
2026-04-23 12:29 50.04463 14.37640 2713 ft 143 kts 308°
2026-04-23 12:29 50.05045 14.36443 2487 ft 135 kts 309°
2026-04-23 12:29 50.05606 14.35291 2288 ft 132 kts 307°
2026-04-23 12:30 50.06160 14.34135 2142 ft 134 kts 306°
2026-04-23 12:30 50.06715 14.32990 1973 ft 132 kts 307°
2026-04-23 12:30 50.07270 14.31848 1815 ft 132 kts 308°
2026-04-23 12:30 50.07820 14.30703 1629 ft 132 kts 307°
2026-04-23 12:31 50.08369 14.29564 1460 ft 131 kts 307°
2026-04-23 12:31 50.08920 14.28433 1303 ft 131 kts 307°
2026-04-23 12:31 50.09455 14.27315 1205 ft 129 kts 307°
2026-04-23 12:31 50.09891 14.26420 1204 ft 73 kts 308°
2026-04-23 12:32 50.10060 14.26063 1204 ft 17 kts 308°
2026-04-23 12:32 50.10150 14.25887 1204 ft 24 kts 308°
2026-04-23 12:32 50.10256 14.25721 1204 ft 16 kts 332°
2026-04-23 12:32 50.10343 14.25666 1204 ft 15 kts 347°
2026-04-23 12:33 50.10460 14.25673 1204 ft 17 kts 30°
2026-04-23 12:33 50.10496 14.25811 1204 ft 12 kts 82°
2026-04-23 12:33 50.10514 14.25957 1204 ft 17 kts 78°
2026-04-23 12:33 50.10541 14.26143 1204 ft 12 kts 82°
2026-04-23 12:34 50.10548 14.26219 1204 ft 5 kts 59°
2026-04-23 12:34 50.10568 14.26250 1204 ft 5 kts 39°
2026-04-23 12:34 50.10592 14.26278 1204 ft 0 kts 34°